This demonstration page uses our WeatherBlox Daily Observations layout. Learn more.

Left ArrowRight Arrow

34.02893, -84.19858

Hourly Observations for October 6, 2015

Temp ( °F °C ) Dew Point ( °F °C ) Humidity (%) Winds ( mph kmh ) Pressure ( in mb ) Visibility ( mi km ) Precip ( " mm )
12:53 am 00:53 Clear 63 17.2 62 16.7 97 97 E 3 6 30.00 1016 10 16 0.00 0.00
1:53 am 01:53 Clear 63 17.2 62 16.7 97 97 Calm 29.99 1016 10 16 0.00 0.00
2:53 am 02:53 Clear 62 16.7 62 16.7 100 100 E 3 6 29.99 1016 10 16 0.00 0.00
3:15 am 03:15 Mostly Clear 62 16.7 61 16.1 96 96 E 3 6 30.00 1016 10 16 0.00 0.00
3:53 am 03:53 Mostly Clear 62 16.7 61 16.1 96 96 Calm 29.99 1016 10 16 0.00 0.00
4:53 am 04:53 Clear 61 16.1 60 15.6 97 97 Calm 30.00 1016 10 16 0.00 0.00
5:53 am 05:53 Clear 60 15.6 59 15 96 96 E 3 6 30.00 1016 10 16 0.00 0.00
6:53 am 06:53 Clear 60 15.6 59 15 96 96 Calm 30.02 1017 10 16 0.00 0.00
7:53 am 07:53 Mostly Sunny 59 15 59 15 100 100 Calm 30.05 1018 10 16 0.00 0.00
8:53 am 08:53 Sunny 61 16.1 59 15 93 93 VRB 7 11 30.06 1018 10 16 0.00 0.00
9:53 am 09:53 Cloudy 64 17.8 54 12.2 70 70 undefined N/A 30.07 1018 10 16 0.00 0.00
10:53 am 10:53 Cloudy 63 17.2 53 11.7 70 70 ENE 5 7 30.08 1019 10 16 0.00 0.00
11:53 am 11:53 Mostly Cloudy 69 20.6 54 12.2 59 59 E 3 6 30.07 1018 10 16 0.00 0.00
12:53 pm 12:53 Mostly Cloudy 70 21.1 53 11.7 55 55 Calm 30.06 1018 10 16 0.00 0.00
1:53 pm 13:53 Cloudy 72 22.2 55 12.8 55 55 VRB 3 6 30.04 1017 10 16 0.00 0.00
2:00 pm 14:00 Cloudy 72 22 55 13 57 57 Calm 30.03 1017 10 16 0.00 0.00
2:53 pm 14:53 Mostly Cloudy 74 23.3 57 13.9 56 56 VRB 6 9 30.01 1016 10 16 0.00 0.00
3:21 pm 15:21 Sunny 75 23.9 59 15 58 58 NW 8 13 30.00 1016 10 16 0.00 0.00
3:53 pm 15:53 Sunny 74 23.3 59 15 60 60 VRB 6 9 29.99 1016 10 16 0.00 0.00
4:53 pm 16:53 Sunny 75 23.9 60 15.6 60 60 WSW 3 6 29.98 1015 10 16 0.00 0.00
5:53 pm 17:53 Sunny 75 23.9 62 16.7 64 64 NNW 7 11 29.98 1015 10 16 0.00 0.00
6:53 pm 18:53 Sunny 73 22.8 61 16.1 66 66 NW 7 11 29.98 1015 10 16 0.00 0.00
7:53 pm 19:53 Clear 66 18.9 62 16.7 87 87 Calm 29.99 1016 10 16 0.00 0.00
8:53 pm 20:53 Clear 64 17.8 62 16.7 93 93 Calm 30.01 1016 10 16 0.00 0.00
9:53 pm 21:53 Clear 63 17.2 62 16.7 97 97 Calm 30.01 1016 10 16 0.00 0.00
10:53 pm 22:53 Clear 62 16.7 61 16.1 96 96 Calm 30.01 1016 10 16 0.00 0.00
11:53 pm 23:53 Clear 62 16.7 61 16.1 96 96 Calm 30.01 1016 10 16 0.00 0.00

Powered by AerisWeather